Time,TemperatureF,DewpointF,PressureIn,WindDirection,WindDirectionDegrees,WindSpeedMPH,WindSpeedGustMPH,Humidity,HourlyPrecipIn,Conditions,Clouds,dailyrainin,SoftwareType,DateUTC
2013-03-26 00:04:00,41.3,23.1,30.43,NE,51,4.0,13.0,48,0.00,,,0.00,Wunderground v.1.15,2013-03-26 05:04:00,
2013-03-26 00:09:00,41.0,22.8,30.43,NE,49,4.0,13.0,48,0.00,,,0.00,Wunderground v.1.15,2013-03-26 05:09:00,
2013-03-26 00:14:00,40.7,22.5,30.43,ENE,58,4.0,13.0,48,0.00,,,0.00,Wunderground v.1.15,2013-03-26 05:14:00,
2013-03-26 00:19:00,40.7,22.5,30.43,NE,42,4.0,13.0,48,0.00,,,0.00,Wunderground v.1.15,2013-03-26 05:19:00,
2013-03-26 00:24:00,40.7,22.0,30.43,NE,49,5.0,13.0,47,0.00,,,0.00,Wunderground v.1.15,2013-03-26 05:24:00,
2013-03-26 00:29:00,40.7,22.0,30.43,NE,56,5.0,13.0,47,0.00,,,0.00,Wunderground v.1.15,2013-03-26 05:29:00,
2013-03-26 00:35:00,40.5,22.3,30.43,ENE,57,4.0,13.0,48,0.00,,,0.00,Wunderground v.1.15,2013-03-26 05:35:00,
2013-03-26 00:40:00,40.3,22.1,30.43,ENE,76,3.0,13.0,48,0.00,,,0.00,Wunderground v.1.15,2013-03-26 05:40:00,
2013-03-26 00:45:00,40.1,22.0,30.44,NE,50,3.0,13.0,48,0.00,,,0.00,Wunderground v.1.15,2013-03-26 05:45:00,
2013-03-26 00:51:00,40.0,21.9,30.44,ENE,62,3.0,13.0,48,0.00,,,0.00,Wunderground v.1.15,2013-03-26 05:51:00,
2013-03-26 00:56:00,39.7,21.6,30.44,ENE,66,2.0,13.0,48,0.00,,,0.00,Wunderground v.1.15,2013-03-26 05:56:00,
2013-03-26 01:02:00,39.6,21.5,30.44,NE,56,2.0,13.0,48,0.00,,,0.00,Wunderground v.1.15,2013-03-26 06:02:00,
2013-03-26 01:08:00,39.5,21.4,30.44,ENE,66,3.0,13.0,48,0.00,,,0.00,Wunderground v.1.15,2013-03-26 06:08:00,
2013-03-26 01:14:00,39.3,21.2,30.43,ENE,65,3.0,13.0,48,0.00,,,0.00,Wunderground v.1.15,2013-03-26 06:14:00,
2013-03-26 01:19:00,39.1,21.0,30.44,NE,50,3.0,13.0,48,0.00,,,0.00,Wunderground v.1.15,2013-03-26 06:19:00,
2013-03-26 01:24:00,39.0,20.9,30.43,NE,51,3.0,13.0,48,0.00,,,0.00,Wunderground v.1.15,2013-03-26 06:24:00,
2013-03-26 01:29:00,38.8,20.8,30.43,NE,49,3.0,13.0,48,0.00,,,0.00,Wunderground v.1.15,2013-03-26 06:29:00,
2013-03-26 01:34:00,38.7,20.7,30.43,NE,56,2.0,13.0,48,0.00,,,0.00,Wunderground v.1.15,2013-03-26 06:34:00,
2013-03-26 01:39:00,38.5,20.5,30.43,ENE,60,2.0,13.0,48,0.00,,,0.00,Wunderground v.1.15,2013-03-26 06:39:00,
2013-03-26 01:45:00,38.3,20.8,30.43,ENE,61,1.0,13.0,49,0.00,,,0.00,Wunderground v.1.15,2013-03-26 06:45:00,
2013-03-26 01:50:00,38.1,20.6,30.43,ENE,60,1.0,1.0,49,0.00,,,0.00,Wunderground v.1.15,2013-03-26 06:50:00,
2013-03-26 01:55:00,38.0,20.5,30.43,ENE,60,0.0,13.0,49,0.00,,,0.00,Wunderground v.1.15,2013-03-26 06:55:00,
2013-03-26 02:00:00,37.7,20.2,30.43,ENE,61,0.0,13.0,49,0.00,,,0.00,Wunderground v.1.15,2013-03-26 07:00:00,
2013-03-26 02:06:00,37.1,20.2,30.43,ENE,60,0.0,13.0,50,0.00,,,0.00,Wunderground v.1.15,2013-03-26 07:06:00,
2013-03-26 02:11:00,36.5,19.6,30.43,ENE,61,0.0,13.0,50,0.00,,,0.00,Wunderground v.1.15,2013-03-26 07:11:00,
2013-03-26 02:17:00,36.2,19.8,30.43,ENE,61,0.0,13.0,51,0.00,,,0.00,Wunderground v.1.15,2013-03-26 07:17:00,
2013-03-26 02:23:00,35.9,19.5,30.43,ENE,60,0.0,13.0,51,0.00,,,0.00,Wunderground v.1.15,2013-03-26 07:23:00,
2013-03-26 02:28:00,36.3,19.9,30.43,ENE,60,0.0,13.0,51,0.00,,,0.00,Wunderground v.1.15,2013-03-26 07:28:00,
2013-03-26 02:33:00,36.6,19.7,30.43,ENE,59,0.0,13.0,50,0.00,,,0.00,Wunderground v.1.15,2013-03-26 07:33:00,
2013-03-26 02:38:00,36.4,19.5,30.43,ENE,59,0.0,13.0,50,0.00,,,0.00,Wunderground v.1.15,2013-03-26 07:38:00,
2013-03-26 02:43:00,36.4,19.5,30.42,ENE,59,0.0,13.0,50,0.00,,,0.00,Wunderground v.1.15,2013-03-26 07:43:00,
2013-03-26 02:49:00,36.4,19.5,30.42,ENE,59,0.0,13.0,50,0.00,,,0.00,Wunderground v.1.15,2013-03-26 07:49:00,
2013-03-26 02:54:00,36.8,19.4,30.42,ENE,59,1.0,13.0,49,0.00,,,0.00,Wunderground v.1.15,2013-03-26 07:54:00,
2013-03-26 02:59:00,36.7,20.3,30.42,ENE,59,1.0,13.0,51,0.00,,,0.00,Wunderground v.1.15,2013-03-26 07:59:00,
2013-03-26 03:05:00,35.5,20.0,30.42,ENE,61,1.0,13.0,53,0.00,,,0.00,Wunderground v.1.15,2013-03-26 08:05:00,
2013-03-26 03:11:00,35.5,20.0,30.42,ENE,61,0.0,13.0,53,0.00,,,0.00,Wunderground v.1.15,2013-03-26 08:11:00,
2013-03-26 03:16:00,35.7,19.8,30.42,ENE,61,0.0,13.0,52,0.00,,,0.00,Wunderground v.1.15,2013-03-26 08:16:00,
2013-03-26 03:22:00,35.8,19.9,30.42,ENE,60,0.0,13.0,52,0.00,,,0.00,Wunderground v.1.15,2013-03-26 08:22:00,
2013-03-26 03:27:00,35.8,19.9,30.42,ENE,60,0.0,13.0,52,0.00,,,0.00,Wunderground v.1.15,2013-03-26 08:27:00,
2013-03-26 03:32:00,35.8,19.9,30.42,ENE,60,0.0,13.0,52,0.00,,,0.00,Wunderground v.1.15,2013-03-26 08:32:00,
2013-03-26 03:37:00,35.5,19.6,30.42,ENE,60,0.0,13.0,52,0.00,,,0.00,Wunderground v.1.15,2013-03-26 08:37:00,
2013-03-26 03:42:00,35.9,20.0,30.42,NE,47,1.0,13.0,52,0.00,,,0.00,Wunderground v.1.15,2013-03-26 08:42:00,
2013-03-26 03:48:00,36.0,20.1,30.42,NE,47,2.0,13.0,52,0.00,,,0.00,Wunderground v.1.15,2013-03-26 08:48:00,
2013-03-26 03:53:00,36.0,20.1,30.42,NE,48,1.0,13.0,52,0.00,,,0.00,Wunderground v.1.15,2013-03-26 08:53:00,
2013-03-26 03:58:00,35.7,19.8,30.42,NE,49,0.0,13.0,52,0.00,,,0.00,Wunderground v.1.15,2013-03-26 08:58:00,
2013-03-26 04:03:00,35.2,19.8,30.42,NE,48,0.0,13.0,53,0.00,,,0.00,Wunderground v.1.15,2013-03-26 09:03:00,
2013-03-26 04:09:00,34.9,19.5,30.42,NE,48,0.0,13.0,53,0.00,,,0.00,Wunderground v.1.15,2013-03-26 09:09:00,
2013-03-26 04:14:00,35.3,19.4,30.42,ESE,108,0.0,13.0,52,0.00,,,0.00,Wunderground v.1.15,2013-03-26 09:14:00,
2013-03-26 04:19:00,35.9,19.5,30.42,ESE,107,0.0,13.0,51,0.00,,,0.00,Wunderground v.1.15,2013-03-26 09:19:00,
2013-03-26 04:24:00,36.0,19.6,30.42,ESE,107,0.0,13.0,51,0.00,,,0.00,Wunderground v.1.15,2013-03-26 09:24:00,
2013-03-26 04:29:00,35.6,19.2,30.42,ESE,107,0.0,13.0,51,0.00,,,0.00,Wunderground v.1.15,2013-03-26 09:29:00,
2013-03-26 04:35:00,35.2,19.3,30.43,SE,124,0.0,13.0,52,0.00,,,0.00,Wunderground v.1.15,2013-03-26 09:35:00,
2013-03-26 04:41:00,34.7,19.3,30.42,SW,225,0.0,13.0,53,0.00,,,0.00,Wunderground v.1.15,2013-03-26 09:41:00,
2013-03-26 04:46:00,34.3,19.4,30.43,SW,229,0.0,13.0,54,0.00,,,0.00,Wunderground v.1.15,2013-03-26 09:46:00,
2013-03-26 04:52:00,34.3,19.4,30.43,WSW,238,0.0,13.0,54,0.00,,,0.00,Wunderground v.1.15,2013-03-26 09:52:00,
2013-03-26 04:57:00,33.9,19.8,30.43,WSW,238,0.0,13.0,56,0.00,,,0.00,Wunderground v.1.15,2013-03-26 09:57:00,
2013-03-26 05:03:00,33.2,19.6,30.43,WSW,249,0.0,13.0,57,0.00,,,0.00,Wunderground v.1.15,2013-03-26 10:03:00,
2013-03-26 05:08:00,32.6,19.8,30.43,WSW,240,0.0,13.0,59,0.00,,,0.00,Wunderground v.1.15,2013-03-26 10:08:00,
2013-03-26 05:13:00,32.5,19.7,30.43,SW,233,0.0,13.0,59,0.00,,,0.00,Wunderground v.1.15,2013-03-26 10:13:00,
2013-03-26 05:18:00,32.5,19.7,30.43,SW,233,0.0,13.0,59,0.00,,,0.00,Wunderground v.1.15,2013-03-26 10:18:00,
2013-03-26 05:24:00,32.4,20.0,30.43,WSW,257,1.0,13.0,60,0.00,,,0.00,Wunderground v.1.15,2013-03-26 10:24:00,
2013-03-26 05:29:00,32.5,19.7,30.43,WSW,252,2.0,13.0,59,0.00,,,0.00,Wunderground v.1.15,2013-03-26 10:29:00,
2013-03-26 05:34:00,32.6,19.8,30.44,WSW,253,2.0,13.0,59,0.00,,,0.00,Wunderground v.1.15,2013-03-26 10:34:00,
2013-03-26 05:39:00,32.8,20.0,30.44,WSW,248,2.0,13.0,59,0.00,,,0.00,Wunderground v.1.15,2013-03-26 10:39:00,
2013-03-26 05:44:00,32.7,19.9,30.44,WSW,238,2.0,13.0,59,0.00,,,0.00,Wunderground v.1.15,2013-03-26 10:44:00,
2013-03-26 05:49:00,32.5,20.1,30.44,WSW,243,2.0,13.0,60,0.00,,,0.00,Wunderground v.1.15,2013-03-26 10:49:00,
2013-03-26 05:54:00,32.3,20.0,30.44,West,274,2.0,13.0,60,0.00,,,0.00,Wunderground v.1.15,2013-03-26 10:54:00,
2013-03-26 05:59:00,33.0,19.8,30.44,West,273,2.0,13.0,58,0.00,,,0.00,Wunderground v.1.15,2013-03-26 10:59:00,
2013-03-26 06:05:00,32.8,19.6,30.44,WSW,252,2.0,13.0,58,0.00,,,0.00,Wunderground v.1.15,2013-03-26 11:05:00,
2013-03-26 06:10:00,32.4,19.7,30.44,West,261,1.0,13.0,59,0.00,,,0.00,Wunderground v.1.15,2013-03-26 11:10:00,
2013-03-26 06:16:00,32.9,19.7,30.44,West,266,2.0,13.0,58,0.00,,,0.00,Wunderground v.1.15,2013-03-26 11:16:00,
2013-03-26 06:21:00,32.9,19.7,30.45,WSW,250,2.0,13.0,58,0.00,,,0.00,Wunderground v.1.15,2013-03-26 11:21:00,
2013-03-26 06:27:00,32.7,19.5,30.45,West,266,1.0,13.0,58,0.00,,,0.00,Wunderground v.1.15,2013-03-26 11:27:00,
2013-03-26 06:32:00,33.1,20.3,30.45,West,274,1.0,13.0,59,0.00,,,0.00,Wunderground v.1.15,2013-03-26 11:32:00,
2013-03-26 06:37:00,32.7,19.9,30.46,West,274,1.0,13.0,59,0.00,,,0.00,Wunderground v.1.15,2013-03-26 11:37:00,
2013-03-26 06:43:00,32.5,19.7,30.46,WSW,248,0.0,13.0,59,0.00,,,0.00,Wunderground v.1.15,2013-03-26 11:43:00,
2013-03-26 06:48:00,32.3,19.6,30.46,WSW,248,0.0,13.0,59,0.00,,,0.00,Wunderground v.1.15,2013-03-26 11:48:00,
2013-03-26 06:53:00,31.7,19.4,30.46,WSW,248,0.0,13.0,60,0.00,,,0.00,Wunderground v.1.15,2013-03-26 11:53:00,
2013-03-26 06:59:00,31.0,19.1,30.47,WSW,248,0.0,13.0,61,0.00,,,0.00,Wunderground v.1.15,2013-03-26 11:59:00,
2013-03-26 07:04:00,30.9,19.4,30.47,WSW,248,0.0,13.0,62,0.00,,,0.00,Wunderground v.1.15,2013-03-26 12:04:00,
2013-03-26 07:10:00,31.6,19.3,30.47,WSW,248,0.0,13.0,60,0.00,,,0.00,Wunderground v.1.15,2013-03-26 12:10:00,
2013-03-26 07:15:00,32.0,19.3,30.48,WSW,249,0.0,13.0,59,0.00,,,0.00,Wunderground v.1.15,2013-03-26 12:15:00,
2013-03-26 07:20:00,32.5,18.9,30.48,WSW,249,0.0,13.0,57,0.00,,,0.00,Wunderground v.1.15,2013-03-26 12:20:00,
2013-03-26 07:25:00,32.8,19.2,30.48,WSW,249,0.0,13.0,57,0.00,,,0.00,Wunderground v.1.15,2013-03-26 12:25:00,
2013-03-26 07:30:00,33.0,19.0,30.48,WSW,249,0.0,13.0,56,0.00,,,0.00,Wunderground v.1.15,2013-03-26 12:30:00,
2013-03-26 07:35:00,33.2,18.8,30.48,WSW,248,0.0,13.0,55,0.00,,,0.00,Wunderground v.1.15,2013-03-26 12:35:00,
2013-03-26 07:40:00,33.4,18.9,30.48,WSW,248,0.0,13.0,55,0.00,,,0.00,Wunderground v.1.15,2013-03-26 12:40:00,
2013-03-26 07:46:00,33.8,18.9,30.48,WSW,246,0.0,13.0,54,0.00,,,0.00,Wunderground v.1.15,2013-03-26 12:46:00,
2013-03-26 07:51:00,34.2,19.3,30.48,WSW,246,0.0,13.0,54,0.00,,,0.00,Wunderground v.1.15,2013-03-26 12:51:00,
2013-03-26 07:56:00,34.7,19.3,30.48,WSW,237,0.0,13.0,53,0.00,,,0.00,Wunderground v.1.15,2013-03-26 12:56:00,
2013-03-26 08:01:00,35.1,19.7,30.48,SW,221,0.0,13.0,53,0.00,,,0.00,Wunderground v.1.15,2013-03-26 13:01:00,
2013-03-26 08:07:00,35.4,20.4,30.48,SW,221,0.0,13.0,54,0.00,,,0.00,Wunderground v.1.15,2013-03-26 13:07:00,
2013-03-26 08:13:00,36.1,21.5,30.48,SW,221,0.0,13.0,55,0.00,,,0.00,Wunderground v.1.15,2013-03-26 13:13:00,
2013-03-26 08:19:00,37.3,22.6,30.49,SW,221,0.0,13.0,55,0.00,,,0.00,Wunderground v.1.15,2013-03-26 13:19:00,
2013-03-26 08:24:00,39.3,22.7,30.49,SW,221,0.0,13.0,51,0.00,,,0.00,Wunderground v.1.15,2013-03-26 13:24:00,
2013-03-26 08:29:00,41.3,24.0,30.49,SW,221,0.0,13.0,50,0.00,,,0.00,Wunderground v.1.15,2013-03-26 13:29:00,
2013-03-26 08:35:00,42.9,23.5,30.49,SSE,158,0.0,13.0,46,0.00,,,0.00,Wunderground v.1.15,2013-03-26 13:35:00,
2013-03-26 08:40:00,43.0,23.1,30.49,SE,135,1.0,13.0,45,0.00,,,0.00,Wunderground v.1.15,2013-03-26 13:40:00,
2013-03-26 08:45:00,42.9,21.9,30.50,SE,134,2.0,13.0,43,0.00,,,0.00,Wunderground v.1.15,2013-03-26 13:45:00,
2013-03-26 08:51:00,42.8,22.4,30.50,SE,136,3.0,13.0,44,0.00,,,0.00,Wunderground v.1.15,2013-03-26 13:51:00,
2013-03-26 08:57:00,42.8,21.8,30.50,SE,141,3.0,13.0,43,0.00,,,0.00,Wunderground v.1.15,2013-03-26 13:57:00,
2013-03-26 09:02:00,42.7,21.2,30.50,ESE,102,4.0,13.0,42,0.00,,,0.00,Wunderground v.1.15,2013-03-26 14:02:00,
2013-03-26 09:07:00,42.7,20.6,30.50,ESE,109,5.0,13.0,41,0.00,,,0.00,Wunderground v.1.15,2013-03-26 14:07:00,
2013-03-26 09:13:00,43.1,20.4,30.50,East,98,5.0,13.0,40,0.00,,,0.00,Wunderground v.1.15,2013-03-26 14:13:00,
2013-03-26 09:18:00,43.1,19.8,30.50,SE,132,5.0,13.0,39,0.00,,,0.00,Wunderground v.1.15,2013-03-26 14:18:00,
2013-03-26 09:24:00,43.6,20.2,30.50,East,97,5.0,13.0,39,0.00,,,0.00,Wunderground v.1.15,2013-03-26 14:24:00,
2013-03-26 09:29:00,44.0,20.6,30.51,SSE,162,4.0,13.0,39,0.00,,,0.00,Wunderground v.1.15,2013-03-26 14:29:00,
2013-03-26 09:35:00,44.4,21.0,30.51,ESE,113,4.0,13.0,39,0.00,,,0.00,Wunderground v.1.15,2013-03-26 14:35:00,
2013-03-26 09:40:00,44.4,20.3,30.51,SE,124,5.0,13.0,38,0.00,,,0.00,Wunderground v.1.15,2013-03-26 14:40:00,
2013-03-26 09:45:00,44.6,19.9,30.50,South,191,5.0,13.0,37,0.00,,,0.00,Wunderground v.1.15,2013-03-26 14:45:00,
2013-03-26 09:51:00,44.8,20.7,30.51,East,101,5.0,6.0,38,0.00,,,0.00,Wunderground v.1.15,2013-03-26 14:51:00,
2013-03-26 09:56:00,45.1,21.0,30.51,SE,145,5.0,6.0,38,0.00,,,0.00,Wunderground v.1.15,2013-03-26 14:56:00,
2013-03-26 10:01:00,45.1,21.6,30.51,ESE,121,5.0,5.0,39,0.00,,,0.00,Wunderground v.1.15,2013-03-26 15:01:00,
2013-03-26 10:07:00,45.8,21.6,30.50,East,96,5.0,5.0,38,0.00,,,0.00,Wunderground v.1.15,2013-03-26 15:07:00,
2013-03-26 10:12:00,46.0,21.1,30.50,ESE,109,4.0,6.0,37,0.00,,,0.00,Wunderground v.1.15,2013-03-26 15:12:00,
2013-03-26 10:17:00,45.8,21.0,30.50,ESE,114,5.0,9.0,37,0.00,,,0.00,Wunderground v.1.15,2013-03-26 15:17:00,
2013-03-26 10:23:00,46.0,22.4,30.50,SSE,156,4.0,6.0,39,0.00,,,0.00,Wunderground v.1.15,2013-03-26 15:23:00,
2013-03-26 10:28:00,46.7,22.4,30.50,SE,136,4.0,9.0,38,0.00,,,0.00,Wunderground v.1.15,2013-03-26 15:28:00,
2013-03-26 10:33:00,47.1,22.8,30.50,ESE,109,5.0,9.0,38,0.00,,,0.00,Wunderground v.1.15,2013-03-26 15:33:00,
2013-03-26 10:39:00,48.4,22.6,30.50,SE,139,4.0,9.0,36,0.00,,,0.00,Wunderground v.1.15,2013-03-26 15:39:00,
2013-03-26 10:44:00,48.3,21.2,30.50,ESE,109,5.0,9.0,34,0.00,,,0.00,Wunderground v.1.15,2013-03-26 15:44:00,
2013-03-26 10:50:00,48.8,21.6,30.50,South,181,5.0,9.0,34,0.00,,,0.00,Wunderground v.1.15,2013-03-26 15:50:00,
2013-03-26 10:55:00,49.2,22.0,30.50,SW,222,4.0,9.0,34,0.00,,,0.00,Wunderground v.1.15,2013-03-26 15:55:00,
2013-03-26 11:02:00,50.2,22.2,30.50,SW,233,3.0,9.0,33,0.00,,,0.00,Wunderground v.1.15,2013-03-26 16:02:00,
2013-03-26 11:07:00,49.8,22.5,30.50,East,84,4.0,9.0,34,0.00,,,0.00,Wunderground v.1.15,2013-03-26 16:07:00,
2013-03-26 11:12:00,49.9,22.6,30.50,SSE,157,4.0,9.0,34,0.00,,,0.00,Wunderground v.1.15,2013-03-26 16:12:00,
2013-03-26 11:17:00,50.0,22.7,30.50,SSW,203,5.0,9.0,34,0.00,,,0.00,Wunderground v.1.15,2013-03-26 16:17:00,
2013-03-26 11:23:00,50.3,23.7,30.50,SSW,194,5.0,9.0,35,0.00,,,0.00,Wunderground v.1.15,2013-03-26 16:23:00,
2013-03-26 11:29:00,50.8,21.2,30.50,South,174,5.0,9.0,31,0.00,,,0.00,Wunderground v.1.15,2013-03-26 16:29:00,
2013-03-26 11:35:00,50.9,22.8,30.49,SSE,163,4.0,9.0,33,0.00,,,0.00,Wunderground v.1.15,2013-03-26 16:35:00,
2013-03-26 11:41:00,51.4,21.7,30.49,SSE,156,4.0,9.0,31,0.00,,,0.00,Wunderground v.1.15,2013-03-26 16:41:00,
2013-03-26 11:46:00,51.4,21.7,30.49,SE,139,4.0,9.0,31,0.00,,,0.00,Wunderground v.1.15,2013-03-26 16:46:00,
2013-03-26 11:51:00,52.2,24.6,30.49,SSW,199,4.0,9.0,34,0.00,,,0.00,Wunderground v.1.15,2013-03-26 16:51:00,
2013-03-26 11:56:00,52.7,22.9,30.49,SSE,153,4.0,9.0,31,0.00,,,0.00,Wunderground v.1.15,2013-03-26 16:56:00,
2013-03-26 12:02:00,52.9,23.0,30.48,WSW,239,4.0,9.0,31,0.00,,,0.00,Wunderground v.1.15,2013-03-26 17:02:00,
2013-03-26 12:08:00,53.0,23.9,30.48,South,180,3.0,9.0,32,0.00,,,0.00,Wunderground v.1.15,2013-03-26 17:08:00,
2013-03-26 12:14:00,53.6,23.7,30.48,South,180,2.0,9.0,31,0.00,,,0.00,Wunderground v.1.15,2013-03-26 17:14:00,
2013-03-26 12:19:00,54.3,25.8,30.47,SSE,155,2.0,9.0,33,0.00,,,0.00,Wunderground v.1.15,2013-03-26 17:19:00,
2013-03-26 12:25:00,54.5,23.7,30.47,SE,127,3.0,9.0,30,0.00,,,0.00,Wunderground v.1.15,2013-03-26 17:25:00,
2013-03-26 12:30:00,54.3,24.3,30.47,SE,139,4.0,9.0,31,0.00,,,0.00,Wunderground v.1.15,2013-03-26 17:30:00,
2013-03-26 12:36:00,53.9,23.1,30.46,SE,124,4.0,9.0,30,0.00,,,0.00,Wunderground v.1.15,2013-03-26 17:36:00,
2013-03-26 12:42:00,54.1,24.1,30.46,SW,214,3.0,9.0,31,0.00,,,0.00,Wunderground v.1.15,2013-03-26 17:42:00,
2013-03-26 12:48:00,54.5,22.0,30.46,SW,222,3.0,9.0,28,0.00,,,0.00,Wunderground v.1.15,2013-03-26 17:48:00,
2013-03-26 12:54:00,55.2,24.3,30.46,SSE,166,4.0,10.0,30,0.00,,,0.00,Wunderground v.1.15,2013-03-26 17:54:00,
2013-03-26 12:59:00,55.1,25.0,30.45,SSE,163,5.0,10.0,31,0.00,,,0.00,Wunderground v.1.15,2013-03-26 17:59:00,
2013-03-26 13:04:00,55.4,23.6,30.45,NNW,332,5.0,9.0,29,0.00,,,0.00,Wunderground v.1.15,2013-03-26 18:04:00,
2013-03-26 13:09:00,55.5,24.5,30.45,SSW,205,2.0,9.0,30,0.00,,,0.00,Wunderground v.1.15,2013-03-26 18:09:00,
2013-03-26 13:14:00,56.2,25.1,30.45,WSW,250,2.0,9.0,30,0.00,,,0.00,Wunderground v.1.15,2013-03-26 18:14:00,
2013-03-26 13:20:00,56.3,26.0,30.44,SW,233,3.0,3.0,31,0.00,,,0.00,Wunderground v.1.15,2013-03-26 18:20:00,
2013-03-26 13:25:00,57.0,24.2,30.44,SE,139,2.0,9.0,28,0.00,,,0.00,Wunderground v.1.15,2013-03-26 18:25:00,
2013-03-26 13:30:00,56.8,24.0,30.43,South,173,3.0,9.0,28,0.00,,,0.00,Wunderground v.1.15,2013-03-26 18:30:00,
2013-03-26 13:35:00,56.2,23.5,30.43,NW,308,4.0,9.0,28,0.00,,,0.00,Wunderground v.1.15,2013-03-26 18:35:00,
2013-03-26 13:40:00,56.3,24.4,30.43,SSE,159,4.0,9.0,29,0.00,,,0.00,Wunderground v.1.15,2013-03-26 18:40:00,
2013-03-26 13:46:00,56.6,23.8,30.43,SSE,149,6.0,10.0,28,0.00,,,0.00,Wunderground v.1.15,2013-03-26 18:46:00,
2013-03-26 13:51:00,56.9,24.9,30.42,South,172,5.0,9.0,29,0.00,,,0.00,Wunderground v.1.15,2013-03-26 18:51:00,
2013-03-26 13:57:00,56.9,23.2,30.42,SE,125,5.0,9.0,27,0.00,,,0.00,Wunderground v.1.15,2013-03-26 18:57:00,
2013-03-26 14:02:00,56.8,24.0,30.42,East,84,4.0,9.0,28,0.00,,,0.00,Wunderground v.1.15,2013-03-26 19:02:00,
2013-03-26 14:08:00,56.8,24.8,30.41,East,89,4.0,9.0,29,0.00,,,0.00,Wunderground v.1.15,2013-03-26 19:08:00,
2013-03-26 14:14:00,57.6,23.8,30.41,SSE,162,6.0,9.0,27,0.00,,,0.00,Wunderground v.1.15,2013-03-26 19:14:00,
2013-03-26 14:20:00,58.3,23.5,30.40,ENE,68,7.0,7.0,26,0.00,,,0.00,Wunderground v.1.15,2013-03-26 19:20:00,
2013-03-26 14:26:00,58.0,23.3,30.40,South,189,6.0,9.0,26,0.00,,,0.00,Wunderground v.1.15,2013-03-26 19:26:00,
2013-03-26 14:31:00,58.1,24.3,30.40,SE,139,6.0,9.0,27,0.00,,,0.00,Wunderground v.1.15,2013-03-26 19:31:00,
2013-03-26 14:36:00,58.6,24.7,30.39,West,262,6.0,9.0,27,0.00,,,0.00,Wunderground v.1.15,2013-03-26 19:36:00,
2013-03-26 14:42:00,58.7,22.9,30.39,WSW,239,4.0,9.0,25,0.00,,,0.00,Wunderground v.1.15,2013-03-26 19:42:00,
2013-03-26 14:48:00,58.7,24.8,30.39,South,183,4.0,9.0,27,0.00,,,0.00,Wunderground v.1.15,2013-03-26 19:48:00,
2013-03-26 14:54:00,58.8,23.9,30.38,ESE,107,4.0,9.0,26,0.00,,,0.00,Wunderground v.1.15,2013-03-26 19:54:00,
2013-03-26 14:59:00,59.1,24.2,30.38,SSE,158,2.0,9.0,26,0.00,,,0.00,Wunderground v.1.15,2013-03-26 19:59:00,
2013-03-26 15:04:00,59.7,23.8,30.38,East,93,4.0,9.0,25,0.00,,,0.00,Wunderground v.1.15,2013-03-26 20:04:00,
2013-03-26 15:10:00,59.6,23.7,30.37,ESE,111,4.0,9.0,25,0.00,,,0.00,Wunderground v.1.15,2013-03-26 20:10:00,
2013-03-26 15:15:00,60.0,25.0,30.37,SSE,166,4.0,11.0,26,0.00,,,0.00,Wunderground v.1.15,2013-03-26 20:15:00,
2013-03-26 15:21:00,60.2,26.9,30.37,SW,217,5.0,9.0,28,0.00,,,0.00,Wunderground v.1.15,2013-03-26 20:21:00,
2013-03-26 15:27:00,60.7,24.6,30.36,SSE,165,5.0,9.0,25,0.00,,,0.00,Wunderground v.1.15,2013-03-26 20:27:00,
2013-03-26 15:32:00,60.8,25.7,30.36,SW,217,5.0,9.0,26,0.00,,,0.00,Wunderground v.1.15,2013-03-26 20:32:00,
2013-03-26 15:38:00,60.9,25.7,30.36,SSW,193,4.0,9.0,26,0.00,,,0.00,Wunderground v.1.15,2013-03-26 20:38:00,
2013-03-26 15:43:00,61.2,24.1,30.36,SW,235,5.0,9.0,24,0.00,,,0.00,Wunderground v.1.15,2013-03-26 20:43:00,
2013-03-26 15:49:00,61.3,25.1,30.35,SW,215,5.0,9.0,25,0.00,,,0.00,Wunderground v.1.15,2013-03-26 20:49:00,
2013-03-26 15:54:00,60.7,22.6,30.35,ENE,73,5.0,9.0,23,0.00,,,0.00,Wunderground v.1.15,2013-03-26 20:54:00,
2013-03-26 16:00:00,60.9,23.8,30.34,South,183,5.0,9.0,24,0.00,,,0.00,Wunderground v.1.15,2013-03-26 21:00:00,
2013-03-26 16:05:00,60.7,23.7,30.34,NNE,13,5.0,13.0,24,0.00,,,0.00,Wunderground v.1.15,2013-03-26 21:05:00,
2013-03-26 16:10:00,61.3,24.2,30.34,ENE,75,3.0,9.0,24,0.00,,,0.00,Wunderground v.1.15,2013-03-26 21:10:00,
2013-03-26 16:15:00,61.2,24.1,30.34,South,170,3.0,9.0,24,0.00,,,0.00,Wunderground v.1.15,2013-03-26 21:15:00,
2013-03-26 16:21:00,61.2,24.1,30.33,WSW,253,4.0,9.0,24,0.00,,,0.00,Wunderground v.1.15,2013-03-26 21:21:00,
2013-03-26 16:26:00,61.7,23.5,30.33,ESE,115,2.0,9.0,23,0.00,,,0.00,Wunderground v.1.15,2013-03-26 21:26:00,
2013-03-26 16:31:00,61.3,23.1,30.33,NNE,26,4.0,11.0,23,0.00,,,0.00,Wunderground v.1.15,2013-03-26 21:31:00,
2013-03-26 16:37:00,61.1,23.0,30.33,NNW,345,4.0,11.0,23,0.00,,,0.00,Wunderground v.1.15,2013-03-26 21:37:00,
2013-03-26 16:43:00,61.6,22.3,30.33,West,260,3.0,9.0,22,0.00,,,0.00,Wunderground v.1.15,2013-03-26 21:43:00,
2013-03-26 16:48:00,61.9,24.7,30.32,South,174,3.0,9.0,24,0.00,,,0.00,Wunderground v.1.15,2013-03-26 21:48:00,
2013-03-26 16:54:00,62.0,23.7,30.32,West,266,4.0,9.0,23,0.00,,,0.00,Wunderground v.1.15,2013-03-26 21:54:00,
2013-03-26 17:00:00,62.2,23.9,30.32,SSE,159,4.0,4.0,23,0.00,,,0.00,Wunderground v.1.15,2013-03-26 22:00:00,
2013-03-26 17:06:00,62.1,23.8,30.32,WSW,245,4.0,9.0,23,0.00,,,0.00,Wunderground v.1.15,2013-03-26 22:06:00,
2013-03-26 17:11:00,62.1,22.8,30.32,SE,146,4.0,9.0,22,0.00,,,0.00,Wunderground v.1.15,2013-03-26 22:11:00,
2013-03-26 17:16:00,62.6,23.2,30.32,SSE,165,3.0,10.0,22,0.00,,,0.00,Wunderground v.1.15,2013-03-26 22:16:00,
2013-03-26 17:21:00,62.5,22.0,30.31,West,270,4.0,9.0,21,0.00,,,0.00,Wunderground v.1.15,2013-03-26 22:21:00,
2013-03-26 17:27:00,62.2,23.9,30.31,NNW,332,4.0,9.0,23,0.00,,,0.00,Wunderground v.1.15,2013-03-26 22:27:00,
2013-03-26 17:32:00,62.4,23.0,30.31,SE,142,4.0,10.0,22,0.00,,,0.00,Wunderground v.1.15,2013-03-26 22:32:00,
2013-03-26 17:38:00,62.5,24.2,30.30,SSE,155,5.0,10.0,23,0.00,,,0.00,Wunderground v.1.15,2013-03-26 22:38:00,
2013-03-26 17:43:00,62.6,23.2,30.30,SSE,163,5.0,9.0,22,0.00,,,0.00,Wunderground v.1.15,2013-03-26 22:43:00,
2013-03-26 17:48:00,62.5,25.2,30.30,South,181,5.0,9.0,24,0.00,,,0.00,Wunderground v.1.15,2013-03-26 22:48:00,
2013-03-26 17:53:00,62.0,23.7,30.30,SE,144,6.0,9.0,23,0.00,,,0.00,Wunderground v.1.15,2013-03-26 22:53:00,
2013-03-26 17:59:00,61.9,23.6,30.30,SSE,153,5.0,9.0,23,0.00,,,0.00,Wunderground v.1.15,2013-03-26 22:59:00,
2013-03-26 18:05:00,61.8,23.6,30.30,SSE,148,4.0,9.0,23,0.00,,,0.00,Wunderground v.1.15,2013-03-26 23:05:00,
2013-03-26 18:10:00,61.7,22.4,30.30,SSW,198,4.0,4.0,22,0.00,,,0.00,Wunderground v.1.15,2013-03-26 23:10:00,
2013-03-26 18:16:00,61.2,22.0,30.30,SE,128,5.0,9.0,22,0.00,,,0.00,Wunderground v.1.15,2013-03-26 23:16:00,
2013-03-26 18:21:00,61.3,23.1,30.30,SW,214,3.0,5.0,23,0.00,,,0.00,Wunderground v.1.15,2013-03-26 23:21:00,
2013-03-26 18:26:00,61.5,22.3,30.30,SW,222,4.0,11.0,22,0.00,,,0.00,Wunderground v.1.15,2013-03-26 23:26:00,
2013-03-26 18:31:00,61.7,23.5,30.30,SSE,153,6.0,10.0,23,0.00,,,0.00,Wunderground v.1.15,2013-03-26 23:31:00,
2013-03-26 18:36:00,61.4,23.2,30.30,SSE,150,6.0,10.0,23,0.00,,,0.00,Wunderground v.1.15,2013-03-26 23:36:00,
2013-03-26 18:41:00,61.4,22.2,30.30,South,188,5.0,9.0,22,0.00,,,0.00,Wunderground v.1.15,2013-03-26 23:41:00,
2013-03-26 18:47:00,61.1,23.0,30.30,East,94,5.0,9.0,23,0.00,,,0.00,Wunderground v.1.15,2013-03-26 23:47:00,
2013-03-26 18:52:00,60.6,23.6,30.30,ESE,105,5.0,8.0,24,0.00,,,0.00,Wunderground v.1.15,2013-03-26 23:52:00,
2013-03-26 18:58:00,60.4,24.4,30.30,SSE,162,4.0,9.0,25,0.00,,,0.00,Wunderground v.1.15,2013-03-26 23:58:00,
2013-03-26 19:03:00,60.3,23.3,30.30,SSE,158,4.0,9.0,24,0.00,,,0.00,Wunderground v.1.15,2013-03-27 00:03:00,
2013-03-26 19:08:00,60.1,24.1,30.30,ESE,121,5.0,9.0,25,0.00,,,0.00,Wunderground v.1.15,2013-03-27 00:08:00,
2013-03-26 19:14:00,59.8,23.9,30.29,SSE,150,5.0,9.0,25,0.00,,,0.00,Wunderground v.1.15,2013-03-27 00:14:00,
2013-03-26 19:20:00,59.3,24.4,30.29,SE,124,4.0,9.0,26,0.00,,,0.00,Wunderground v.1.15,2013-03-27 00:20:00,
2013-03-26 19:27:00,58.3,24.4,30.29,SE,131,5.0,9.0,27,0.00,,,0.00,Wunderground v.1.15,2013-03-27 00:27:00,
2013-03-26 19:32:00,57.7,24.8,30.29,SE,124,6.0,9.0,28,0.00,,,0.00,Wunderground v.1.15,2013-03-27 00:32:00,
2013-03-26 19:37:00,57.2,25.2,30.29,SE,126,5.0,9.0,29,0.00,,,0.00,Wunderground v.1.15,2013-03-27 00:37:00,
2013-03-26 19:43:00,56.4,25.3,30.30,SSE,153,4.0,9.0,30,0.00,,,0.00,Wunderground v.1.15,2013-03-27 00:43:00,
2013-03-26 19:49:00,55.6,25.4,30.30,SE,128,4.0,9.0,31,0.00,,,0.00,Wunderground v.1.15,2013-03-27 00:49:00,
2013-03-26 19:54:00,54.9,25.6,30.30,SSE,149,4.0,9.0,32,0.00,,,0.00,Wunderground v.1.15,2013-03-27 00:54:00,
2013-03-26 20:00:00,54.3,25.8,30.30,SE,136,4.0,9.0,33,0.00,,,0.00,Wunderground v.1.15,2013-03-27 01:00:00,
2013-03-26 20:05:00,53.8,26.1,30.30,East,82,3.0,9.0,34,0.00,,,0.00,Wunderground v.1.15,2013-03-27 01:05:00,
2013-03-26 20:11:00,53.2,26.2,30.30,SE,139,2.0,9.0,35,0.00,,,0.00,Wunderground v.1.15,2013-03-27 01:11:00,
2013-03-26 20:16:00,52.7,25.8,30.30,SSW,198,2.0,9.0,35,0.00,,,0.00,Wunderground v.1.15,2013-03-27 01:16:00,
2013-03-26 20:22:00,52.2,26.0,30.30,East,100,2.0,9.0,36,0.00,,,0.00,Wunderground v.1.15,2013-03-27 01:22:00,
2013-03-26 20:27:00,51.8,25.7,30.30,SSE,148,2.0,9.0,36,0.00,,,0.00,Wunderground v.1.15,2013-03-27 01:27:00,
2013-03-26 20:32:00,51.6,26.1,30.30,SE,136,3.0,9.0,37,0.00,,,0.00,Wunderground v.1.15,2013-03-27 01:32:00,
2013-03-26 20:38:00,51.2,25.8,30.30,East,101,3.0,9.0,37,0.00,,,0.00,Wunderground v.1.15,2013-03-27 01:38:00,
2013-03-26 20:44:00,50.9,26.2,30.30,ESE,121,2.0,9.0,38,0.00,,,0.00,Wunderground v.1.15,2013-03-27 01:44:00,
2013-03-26 20:50:00,50.5,25.8,30.30,SSE,156,2.0,2.0,38,0.00,,,0.00,Wunderground v.1.15,2013-03-27 01:50:00,
2013-03-26 20:55:00,50.2,26.2,30.30,South,179,2.0,9.0,39,0.00,,,0.00,Wunderground v.1.15,2013-03-27 01:55:00,
2013-03-26 21:00:00,49.9,25.9,30.30,SSE,156,2.0,9.0,39,0.00,,,0.00,Wunderground v.1.15,2013-03-27 02:00:00,
2013-03-26 21:07:00,49.5,26.1,30.30,SSW,201,3.0,9.0,40,0.00,,,0.00,Wunderground v.1.15,2013-03-27 02:07:00,
2013-03-26 21:12:00,49.3,26.0,30.30,SSE,156,3.0,9.0,40,0.00,,,0.00,Wunderground v.1.15,2013-03-27 02:12:00,
2013-03-26 21:18:00,49.1,25.8,30.30,SSE,149,3.0,9.0,40,0.00,,,0.00,Wunderground v.1.15,2013-03-27 02:18:00,
2013-03-26 21:23:00,49.0,25.7,30.30,South,170,3.0,9.0,40,0.00,,,0.00,Wunderground v.1.15,2013-03-27 02:23:00,
2013-03-26 21:28:00,49.0,25.1,30.30,SE,128,4.0,9.0,39,0.00,,,0.00,Wunderground v.1.15,2013-03-27 02:28:00,
2013-03-26 21:34:00,49.0,25.1,30.30,South,174,4.0,9.0,39,0.00,,,0.00,Wunderground v.1.15,2013-03-27 02:34:00,
2013-03-26 21:39:00,49.0,25.1,30.31,SSE,162,4.0,9.0,39,0.00,,,0.00,Wunderground v.1.15,2013-03-27 02:39:00,
2013-03-26 21:44:00,48.9,25.0,30.31,SSE,148,4.0,9.0,39,0.00,,,0.00,Wunderground v.1.15,2013-03-27 02:44:00,
2013-03-26 21:49:00,48.7,25.4,30.31,SSE,163,4.0,9.0,40,0.00,,,0.00,Wunderground v.1.15,2013-03-27 02:49:00,
2013-03-26 21:55:00,48.4,25.2,30.31,South,170,4.0,9.0,40,0.00,,,0.00,Wunderground v.1.15,2013-03-27 02:55:00,
2013-03-26 22:00:00,48.3,25.7,30.31,SSE,162,4.0,9.0,41,0.00,,,0.00,Wunderground v.1.15,2013-03-27 03:00:00,
2013-03-26 22:06:00,48.0,25.4,30.31,SSE,160,5.0,9.0,41,0.00,,,0.00,Wunderground v.1.15,2013-03-27 03:06:00,
2013-03-26 22:13:00,47.8,25.8,30.32,South,183,5.0,9.0,42,0.00,,,0.00,Wunderground v.1.15,2013-03-27 03:13:00,
2013-03-26 22:19:00,47.6,25.6,30.32,SSE,167,5.0,9.0,42,0.00,,,0.00,Wunderground v.1.15,2013-03-27 03:19:00,
2013-03-26 22:24:00,47.5,25.5,30.32,SSE,163,4.0,9.0,42,0.00,,,0.00,Wunderground v.1.15,2013-03-27 03:24:00,
2013-03-26 22:30:00,47.4,25.4,30.32,SE,144,5.0,9.0,42,0.00,,,0.00,Wunderground v.1.15,2013-03-27 03:30:00,
2013-03-26 22:36:00,47.3,25.3,30.32,SSE,157,5.0,9.0,42,0.00,,,0.00,Wunderground v.1.15,2013-03-27 03:36:00,
2013-03-26 22:42:00,47.2,25.8,30.32,SE,146,5.0,9.0,43,0.00,,,0.00,Wunderground v.1.15,2013-03-27 03:42:00,
2013-03-26 22:47:00,46.9,25.5,30.32,SSE,167,5.0,9.0,43,0.00,,,0.00,Wunderground v.1.15,2013-03-27 03:47:00,
2013-03-26 22:53:00,46.8,26.0,30.32,South,169,5.0,9.0,44,0.00,,,0.00,Wunderground v.1.15,2013-03-27 03:53:00,
2013-03-26 22:58:00,46.6,25.8,30.32,South,190,5.0,9.0,44,0.00,,,0.00,Wunderground v.1.15,2013-03-27 03:58:00,
2013-03-26 23:00:00,46.5,25.7,30.32,South,170,5.0,9.0,44,0.00,,,0.00,Wunderground v.1.15,2013-03-27 04:00:00,
2013-03-26 23:02:00,46.5,25.7,30.32,South,172,5.0,9.0,44,0.00,,,0.00,Wunderground v.1.15,2013-03-27 04:02:00,
2013-03-26 23:03:00,46.4,25.6,30.32,South,183,5.0,9.0,44,0.00,,,0.00,Wunderground v.1.15,2013-03-27 04:03:00,
2013-03-26 23:08:00,46.2,25.5,30.32,SSE,162,5.0,9.0,44,0.00,,,0.00,Wunderground v.1.15,2013-03-27 04:08:00,
2013-03-26 23:13:00,46.0,25.3,30.32,SSE,167,5.0,9.0,44,0.00,,,0.00,Wunderground v.1.15,2013-03-27 04:13:00,
2013-03-26 23:18:00,45.9,25.7,30.32,SSE,159,5.0,9.0,45,0.00,,,0.00,Wunderground v.1.15,2013-03-27 04:18:00,
2013-03-26 23:24:00,45.7,25.5,30.32,SSE,159,5.0,9.0,45,0.00,,,0.00,Wunderground v.1.15,2013-03-27 04:24:00,
2013-03-26 23:29:00,45.6,25.5,30.32,South,176,5.0,9.0,45,0.00,,,0.00,Wunderground v.1.15,2013-03-27 04:29:00,
2013-03-26 23:34:00,45.4,25.8,30.32,SSE,160,5.0,9.0,46,0.00,,,0.00,Wunderground v.1.15,2013-03-27 04:34:00,
2013-03-26 23:40:00,45.4,25.8,30.32,SSE,156,5.0,9.0,46,0.00,,,0.00,Wunderground v.1.15,2013-03-27 04:40:00,
2013-03-26 23:47:00,45.3,25.7,30.32,SSE,162,5.0,9.0,46,0.00,,,0.00,Wunderground v.1.15,2013-03-27 04:47:00,
2013-03-26 23:52:00,45.3,25.7,30.32,SSE,160,6.0,9.0,46,0.00,,,0.00,Wunderground v.1.15,2013-03-27 04:52:00,
2013-03-26 23:58:00,45.4,25.8,30.32,SSE,163,6.0,9.0,46,0.00,,,0.00,Wunderground v.1.15,2013-03-27 04:58:00,